Flag for Canada Weather past 2 weeks in Conception Bay South, Newfoundland and Labrador, Canada

Now
37 °F

Overcast.


Feels Like: 37 °F
Forecast: 40 / 51 °F
Wind: 2 mph from West

Location: St. John's

Current Time: Sep 30, 2014 at 4:25:32 AM

Latest Report: Sep 30, 2014 at 3:30 AM


Visibility: 15 mi

Pressure: 30.32 "Hg

Humidity: 75%

Dew point: 30 °F

Location of Conception Bay SouthLocation

Historic Weather in Conception Bay South — Graph

°F

Conception Bay South temperature yesterday

Maximum temperature yesterday: 57 °F (at 1:30 AM)
Minimum temperature yesterday: 37 °F (at 11:30 PM)
Average temperature yesterday: 45 °F

Past Weeks' High & Low Weather Summary

 TemperatureHumidityPressure
High70 °F (Sep 21, 2:30 PM)100% (Sep 15, 4:30 AM)30.44 "Hg (Sep 15, 4:30 AM)
Low36 °F (Sep 30, 1:30 AM)49% (Sep 25, 2:30 PM)29.65 "Hg (Sep 27, 2:30 PM)
Average54 °F83%29.99 "Hg
* Reported Sep 15 2:30 AM — Sep 30 2:30 AM, Conception Bay South, Weather by CustomWeather, © 2014

Note: Actual official high and low records may vary slightly from our data, if they occured in-between our weather recording intervals... More about our weather records

Advertising

Conception Bay South weather history for previous 24 hours

 ConditionsComfort  
Time TempWeatherWind HumidityBarometerVisibility
2:30 AM
Sep 30
36 °FPassing clouds.No wind81%30.32 "Hg15 mi
1:30 AM36 °FPassing clouds.3 mph81%30.31 "Hg15 mi
12:30 AM37 °FOvercast.5 mph81%30.29 "Hg15 mi
11:30 PM
Sep 29
37 °FOvercast.6 mph81%30.30 "Hg15 mi
10:30 PM39 °FMostly cloudy.5 mph81%30.27 "Hg15 mi
9:30 PM39 °FPartly cloudy.7 mph81%30.26 "Hg15 mi
8:30 PM41 °FOvercast.10 mph81%30.24 "Hg15 mi
7:30 PM43 °FPassing clouds.8 mph81%30.21 "Hg15 mi
6:30 PM43 °FMostly cloudy.8 mph81%30.18 "Hg15 mi
5:30 PM43 °FMostly cloudy.9 mph87%30.15 "Hg15 mi
4:30 PM43 °FOvercast.10 mph81%30.12 "Hg15 mi
3:30 PM45 °FMostly cloudy.12 mph76%30.09 "Hg15 mi
2:30 PM43 °FOvercast.9 mph87%30.06 "Hg15 mi
1:30 PM43 °FSprinkles. Overcast.13 mph87%30.04 "Hg15 mi
12:30 PM43 °FMore clouds than sun.13 mph93%30.01 "Hg15 mi
11:30 AM43 °FMostly cloudy.10 mph100%29.98 "Hg15 mi
10:30 AM43 °FDrizzle. Fog.12 mph100%29.96 "Hg2 mi
9:30 AM45 °FDrizzle. Low clouds.13 mph93%29.93 "Hg12 mi
9:17 AM43 °FDrizzle. Overcast.12 mph100%29.92 "Hg10 mi
8:30 AM45 °FDrizzle. Fog.12 mph93%29.90 "Hg2 mi
7:30 AM45 °FDrizzle. Fog.13 mph100%29.88 "Hg3 mi
6:30 AM45 °FDrizzle. Fog.12 mph100%29.84 "Hg3 mi
5:30 AM46 °FDrizzle. Fog.15 mph93%29.80 "Hg5 mi
4:30 AM48 °FLow clouds.14 mph94%29.78 "Hg15 mi
4:16 AM50 °FMostly cloudy.10 mph94%29.77 "Hg15 mi
Weather by CustomWeather, © 2014

See weather overviewHow to use our weather pages